Weather History for Stillwater, OK

Change the Weather History Date:

Friday, April 11, 2014

  Actual Average Record
Temperature  
Mean Temperature 67 °F -  
Max Temperature 84 °F 68 °F 84 °F (2014)
Min Temperature 50 °F 44 °F 28 °F (1997)
Cooling Degree Days 2    
Growing Degree Days 17 (Base 50)    
Moisture  
Dew Point 49 °F    
Average Humidity 54    
Maximum Humidity 78    
Minimum Humidity 38    
Precipitation  
Precipitation 0.00 in - - ()
Sea Level Pressure  
Sea Level Pressure 29.90 in    
Wind  
Wind Speed 9 mph (ESE)    
Max Wind Speed 14 mph    
Max Gust Speed 18 mph    
Visibility 10 miles    
Events      
Averages and records for this station are not official NWS values.
T = Trace of Precipitation, MM = Missing Value Source: NWS Daily Summary

Daily Weather History Graph

Daily Weather History Graph

Search for Another Location

Airport:

Trip Planner

Search our weather history database for the weather conditions in past years. The results will help you decide how hot, cold, wet, or windy it might be!

Date:

Astronomy

Apr. 11, 2014 Rise Set
Actual Time 7:00 AM CDT 7:58 PM CDT
Civil Twilight 6:34 AM CDT 8:25 PM CDT
Nautical Twilight 6:03 AM CDT 8:56 PM CDT
Astronomical Twilight 5:30 AM CDT 9:28 PM CDT
Moon 4:46 PM CDT (4/11) 4:49 AM CDT (4/11)
Length of Visible Light 13h 50m
Length of Day
12h 58m
Waxing Gibbous, 87% of the Moon is Illuminated
Apr 11
Waxing Gibbous
Apr 15
Full
Apr 22
Last Quarter
Apr 29
New
May 6
First Quarter

Hourly Weather History & Observations

Time (CDT) Temp. Heat Index Dew Point Humidity Pressure Visibility Wind Dir Wind Speed Gust Speed Precip Events Conditions
12:53 AM 57.9 °F - 42.1 °F 56% 29.88 in 7.0 mi ENE 9.2 mph - N/A   Clear
1:53 AM 55.0 °F - 42.1 °F 62% 29.88 in 9.0 mi ENE 3.5 mph - N/A   Clear
2:53 AM 52.0 °F - 41.0 °F 66% 29.89 in 9.0 mi North 5.8 mph - N/A   Clear
3:53 AM 54.0 °F - 39.9 °F 59% 29.89 in 10.0 mi NE 11.5 mph - N/A   Clear
4:53 AM 53.1 °F - 39.9 °F 61% 29.89 in 10.0 mi NE 9.2 mph - N/A   Clear
5:53 AM 53.1 °F - 39.0 °F 59% 29.92 in 10.0 mi NE 6.9 mph - N/A   Clear
6:53 AM 50.0 °F - 39.0 °F 66% 29.94 in 10.0 mi ENE 8.1 mph - N/A   Clear
7:53 AM 53.1 °F - 39.9 °F 61% 29.98 in 10.0 mi NE 4.6 mph - N/A   Clear
8:53 AM 60.1 °F - 39.9 °F 47% 29.99 in 10.0 mi NE 10.4 mph - N/A   Clear
9:53 AM 64.9 °F - 45.0 °F 48% 29.97 in 10.0 mi ESE 9.2 mph - N/A   Clear
10:53 AM 70.0 °F - 50.0 °F 49% 29.96 in 10.0 mi SSE 11.5 mph - N/A   Clear
11:53 AM 73.9 °F - 52.0 °F 46% 29.96 in 10.0 mi ESE 9.2 mph - N/A   Clear
12:53 PM 79.0 °F - 54.0 °F 42% 29.94 in 10.0 mi SE 10.4 mph - N/A   Clear
1:53 PM 82.0 °F 81.4 °F 55.0 °F 39% 29.91 in 10.0 mi SE 11.5 mph 17.3 mph N/A   Clear
2:53 PM 82.9 °F 82.0 °F 55.0 °F 38% 29.89 in 10.0 mi SE 8.1 mph - N/A   Clear
3:53 PM 84.0 °F 83.0 °F 55.9 °F 38% 29.87 in 10.0 mi ESE 10.4 mph - N/A   Clear
4:53 PM 84.0 °F 83.0 °F 55.9 °F 38% 29.85 in 10.0 mi ESE 11.5 mph 18.4 mph N/A   Partly Cloudy
5:53 PM 81.0 °F 81.0 °F 57.0 °F 44% 29.86 in 10.0 mi South 13.8 mph - N/A   Partly Cloudy
6:53 PM 77.0 °F - 55.9 °F 48% 29.86 in 10.0 mi South 13.8 mph - N/A   Partly Cloudy
7:53 PM 72.0 °F - 55.9 °F 57% 29.87 in 10.0 mi SSE 13.8 mph - N/A   Clear
8:53 PM 69.1 °F - 55.0 °F 61% 29.88 in 10.0 mi SE 10.4 mph - N/A   Clear
9:53 PM 66.9 °F - 55.0 °F 66% 29.88 in 10.0 mi SE 11.5 mph - N/A   Clear
10:53 PM 66.9 °F - 57.0 °F 70% 29.88 in 10.0 mi SSE 11.5 mph - N/A   Clear
11:53 PM 64.0 °F - 57.0 °F 78% 29.87 in 10.0 mi SSE 9.2 mph - N/A   Clear